Location: Frizzleburg
(41.0764°N, 80.4548°W)
Time: 07:58:38
(UTC+00:00)

CZ-2C R/B - Pass Details

Date: 17 November 2019
Orbit: 667 x 785 km, 98.1° (Epoch: 12 December)

Event Time Altitude Azimuth Distance (km) Brightness Sun altitude
Rises 11:23:11 0° 351° (N) 3,164 5.4 -9.4°
Reaches altitude 10° 11:27:08 10° 320° (NW) 2,205 4.4 -8.6°
Maximum altitude 11:28:39 11° 301° (WNW) 2,092 4.1 -8.4°
Drops below altitude 10° 11:30:10 10° 282° (WNW) 2,177 4.2 -8.1°
Enters shadow 11:30:27 - 279° (W) 2,215 4.2 -8.0°
